User: anonymous   Login
Location: Sawmill Trailhead
(33.5800°N, 116.4497°W)
Time: 14:48:50
(UTC-07:00)
Language:

Uosat F - Orbit

View from above orbital plane
View from above orbital plane
View from above satellite
View from above satellite

Ground track
Ground track

The orbit data is extracted from the following two-line orbital elements,

1 21575U 91050B   15242.81624053  .00000062  00000-0  33848-4 0  9996
2 21575 098.7452 232.5807 0008493 093.0580 027.0512 14.40660039266771
Epoch (UTC): 30 August 2015 19:35:23
Eccentricity: 0.0008493
inclination: 98.7452°
perigee height: 750 km
apogee height: 762 km
right ascension of ascending node: 232.5807°
argument of perigee: 93.0580°
revolutions per day: 14.40660039
mean anomaly at epoch: 27.0512°
orbit number at epoch: 26677

The dashed part of the orbit path shows where the satellite is in the earth's shadow,  

DLR